Hyannis, MA

8:34 AM EDT on April 25, 2017 (GMT -0400)
Barnstable Municipal-Boardman-Polando Field

Weather History for KHYA - March, 2013

Change the Weather History Date:

Saturday, March 23, 2013

  Actual Average Record
Temperature  
Mean Temperature 38 °F -  
Max Temperature 45 °F 45 °F 68 °F (2012)
Min Temperature 30 °F 30 °F 9 °F (1934)
Degree Days  
Heating Degree Days 28    
Moisture  
Dew Point 20 °F    
Average Humidity 50    
Maximum Humidity 69    
Minimum Humidity 31    
Precipitation  
Precipitation 0.00 in - - ()
Sea Level Pressure  
Sea Level Pressure 29.69 in    
Wind  
Wind Speed 11 mph (WNW)    
Max Wind Speed 18 mph    
Max Gust Speed 30 mph    
Visibility 10 miles    
Events      
Averages and records for this station are not official NWS values.
T = Trace of Precipitation, MM = Missing Value Source: NWS Daily Summary

Daily Weather History Graph

Daily Weather History Graph

Search for Another Location

Airport or City:

Trip Planner

Search our weather history database for the weather conditions in past years. The results will help you decide how hot, cold, wet, or windy it might be!

Date:

Astronomy

Mar. 23, 2013 Rise Set
Actual Time 6:38 AM EDT 6:56 PM EDT
Civil Twilight 6:11 AM EDT 7:24 PM EDT
Nautical Twilight 5:38 AM EDT 7:57 PM EDT
Astronomical Twilight 5:05 AM EDT 8:30 PM EDT
Moon 3:17 PM EDT (3/23) 4:16 AM EDT (3/23)
Length of Visible Light 13h 13m
Length of Day
12h 17m
Waxing Gibbous, 85% of the Moon is Illuminated
Mar 23
Waxing Gibbous
Mar 27
Full
Apr 3
Last Quarter
Apr 10
New
Apr 18
First Quarter

Hourly Weather History & Observations

Time (EDT) Temp. Windchill Dew Point Humidity Pressure Visibility Wind Dir Wind Speed Gust Speed Precip Events Conditions
12:56 AM 34.0 °F 26.6 °F 19.9 °F 56% 29.72 in 10.0 mi WNW 9.2 mph 21.9 mph N/A   Clear
1:56 AM 33.1 °F 24.4 °F 19.9 °F 59% 29.73 in 10.0 mi WNW 11.5 mph 19.6 mph N/A   Clear
2:56 AM 32.0 °F 24.8 °F 19.0 °F 59% 29.73 in 10.0 mi WNW 8.1 mph - N/A   Clear
3:56 AM 30.9 °F 22.2 °F 19.0 °F 61% 29.72 in 10.0 mi WNW 10.4 mph - N/A   Clear
4:56 AM 30.9 °F 24.3 °F 19.0 °F 61% 29.72 in 10.0 mi West 6.9 mph - N/A   Clear
5:56 AM 30.9 °F 21.7 °F 21.0 °F 67% 29.72 in 10.0 mi West 11.5 mph - N/A   Clear
6:56 AM 30.9 °F 21.2 °F 21.9 °F 69% 29.72 in 10.0 mi West 12.7 mph 18.4 mph N/A   Clear
7:56 AM 34.0 °F 25.5 °F 21.9 °F 61% 29.72 in 10.0 mi West 11.5 mph 19.6 mph N/A   Clear
8:56 AM 36.0 °F 26.7 °F 24.1 °F 62% 29.70 in 10.0 mi West 15.0 mph 25.3 mph N/A   Clear
9:56 AM 37.9 °F 28.9 °F 24.1 °F 57% 29.68 in 10.0 mi WNW 16.1 mph 24.2 mph N/A   Clear
10:56 AM 39.0 °F 31.0 °F 19.9 °F 46% 29.67 in 10.0 mi WNW 13.8 mph 23.0 mph N/A   Scattered Clouds
11:56 AM 39.9 °F 32.5 °F 19.0 °F 43% 29.66 in 10.0 mi NW 12.7 mph 20.7 mph N/A   Mostly Cloudy
12:56 PM 43.0 °F 37.2 °F 19.9 °F 40% 29.65 in 10.0 mi WNW 10.4 mph 21.9 mph N/A   Mostly Cloudy
1:56 PM 42.1 °F 33.6 °F 19.0 °F 40% 29.64 in 10.0 mi West 18.4 mph 27.6 mph N/A   Mostly Cloudy
2:56 PM 44.1 °F 37.4 °F 17.1 °F 34% 29.63 in 10.0 mi WNW 13.8 mph 27.6 mph N/A   Mostly Cloudy
3:56 PM 45.0 °F 38.9 °F 18.0 °F 34% 29.62 in 10.0 mi WNW 12.7 mph 24.2 mph N/A   Mostly Cloudy
4:56 PM 45.0 °F 37.6 °F 16.0 °F 31% 29.61 in 10.0 mi NW 17.3 mph 29.9 mph N/A   Partly Cloudy
5:56 PM 44.1 °F 37.7 °F 18.0 °F 35% 29.65 in 10.0 mi WNW 12.7 mph 21.9 mph N/A   Partly Cloudy
6:56 PM 41.0 °F 34.3 °F 18.0 °F 40% 29.68 in 10.0 mi WNW 11.5 mph 23.0 mph N/A   Mostly Cloudy
7:56 PM 39.9 °F 33.4 °F 18.0 °F 41% 29.70 in 10.0 mi West 10.4 mph - N/A   Mostly Cloudy
8:56 PM 39.0 °F 32.8 °F 19.0 °F 45% 29.74 in 10.0 mi WNW 9.2 mph - N/A   Overcast
9:56 PM 37.9 °F 31.5 °F 19.0 °F 47% 29.75 in 10.0 mi West 9.2 mph - N/A   Mostly Cloudy
10:56 PM 37.0 °F 31.6 °F 19.0 °F 48% 29.76 in 10.0 mi WNW 6.9 mph - N/A   Clear
11:56 PM 35.1 °F 29.3 °F 19.9 °F 54% 29.75 in 10.0 mi West 6.9 mph - N/A   Clear